This is the latest recevied weather packets stored in our database for station/object W8RSN-13. If no packets are shown the sender has not sent any weather packets the latest 10 day(s).
| Time | Temp. | Humidity | Pressure | Rain* | Wind** | Luminosity | Snow |
|---|---|---|---|---|---|---|---|
| 1787754569 | 25.56° C | 51% | 1014.4 hPa | - | - | - | - |
| 1787754268 | 25° C | 52% | 1014.2 hPa | - | - | - | - |
| 1787753967 | 24.44° C | 53% | 1014.2 hPa | - | - | - | - |
| 1787753666 | 25° C | 52% | 1014 hPa | - | - | - | - |
| 1787753365 | 25° C | 52% | 1014.1 hPa | - | - | - | - |
| 1787753064 | 25° C | 51% | 1014 hPa | - | - | - | - |
| 1787752763 | 24.44° C | 52% | 1013.9 hPa | - | - | - | - |
| 1787752462 | 23.89° C | 53% | 1014 hPa | - | - | - | - |
| 1787752162 | 23.33° C | 54% | 1014 hPa | - | - | - | - |
| 1787751860 | 22.78° C | 55% | 1013.8 hPa | - | - | - | - |
| 1787751560 | 23.33° C | 57% | 1014 hPa | - | - | - | - |
| 1787751259 | 23.33° C | 57% | 1013.8 hPa | - | - | - | - |
| 1787750958 | 23.33° C | 56% | 1013.6 hPa | - | - | - | - |
| 1787750657 | 23.33° C | 56% | 1013.4 hPa | - | - | - | - |
| 1787750356 | 23.33° C | 56% | 1013.4 hPa | - | - | - | - |
| 1787750075 | 23.89° C | 56% | 1013.8 hPa | - | - | - | - |
| 1787749774 | 23.89° C | 56% | 1013.6 hPa | - | - | - | - |
| 1787749473 | 23.33° C | 57% | 1013.5 hPa | - | - | - | - |
| 1787749403 | 23.33° C | 57% | 1013.5 hPa | - | - | - | - |
| 1787749103 | 23.33° C | 58% | 1013.6 hPa | - | - | - | - |
| 1787748802 | 23.33° C | 57% | 1013.4 hPa | - | - | - | - |
| 1787748500 | 23.33° C | 57% | 1013.6 hPa | - | - | - | - |
| 1787748200 | 23.89° C | 56% | 1013.3 hPa | - | - | - | - |
| 1787747899 | 23.89° C | 55% | 1013.3 hPa | - | - | - | - |
| 1787747598 | 24.44° C | 52% | 1013.4 hPa | - | - | - | - |
* Rain since midnight (hover to see other rain measurements)
** Current wind speed in m/s (hover to see current wind gust speed)